St. Johnsbury, VT

8:10 AM EDT on May 25, 2018 (GMT -0400)
St. Johnsbury

Weather History for K1V4 - January, 2012

Change the Weather History Date:

Friday, January 6, 2012

  Actual Average Record
Temperature  
Mean Temperature 19 °F 17 °F  
Max Temperature 26 °F 27 °F 61 °F (2007)
Min Temperature 12 °F 8 °F -25 °F (1996)
Degree Days  
Heating Degree Days 46 48  
Month to date heating degree days 266 284  
Since 1 July heating degree days 2894 3237  
Cooling Degree Days 0 0  
Month to date cooling degree days 0  
Year to date cooling degree days 0  
Moisture  
Dew Point 16 °F    
Average Humidity 87    
Maximum Humidity 92    
Minimum Humidity 81    
Precipitation  
Precipitation 0.07 in 0.08 in 0.75 in (1931)
Month to date precipitation 0.28 0.49  
Year to date precipitation 0.28 0.49  
Sea Level Pressure  
Sea Level Pressure 29.81 in    
Wind  
Wind Speed - (North)    
Max Wind Speed -    
Max Gust Speed -    
T = Trace of Precipitation, MM = Missing Value Source: NWS Daily Summary

Daily Weather History Graph

Daily Weather History Graph

Search for Another Location

Airport or City:

Astronomy

Jan. 06, 2012 Rise Set
Actual Time 7:24 AM EST 4:23 PM EST
Civil Twilight 6:51 AM EST 4:56 PM EST
Nautical Twilight 6:14 AM EST 5:33 PM EST
Astronomical Twilight 5:39 AM EST 6:08 PM EST
Moon 2:10 PM EST (1/6) 5:02 AM EST (1/6)
Length of Visible Light 10h 05m
Length of Day
8h 59m
Waxing Gibbous, 93% of the Moon is Illuminated
Jan 6
Waxing Gibbous
Jan 9
Full
Jan 16
Last Quarter
Jan 23
New
Jan 30
First Quarter

Hourly Weather History & Observations

Time (EST) Temp. Dew Point Humidity Pressure Visibility Wind Dir Wind Speed Gust Speed Precip Events Conditions
12:54 AM 12.0 °F 9.0 °F 88% 29.89 in - North - - N/A   Unknown
1:54 AM 12.0 °F 9.0 °F 88% 29.90 in - North - - N/A   Unknown
2:54 AM 12.0 °F 9.0 °F 88% 29.90 in - North - - N/A   Unknown
3:54 AM 12.9 °F 9.0 °F 84% 29.88 in - North - - N/A   Unknown
4:54 AM 12.9 °F 10.0 °F 88% 29.88 in - North - - N/A   Unknown
5:54 AM 14.0 °F 10.9 °F 88% 29.88 in - North - - 0.02 in   Unknown
6:54 AM 15.1 °F 12.0 °F 88% 29.87 in - North - - 0.01 in   Unknown
7:54 AM 15.1 °F 12.0 °F 88% 29.86 in - North - - 0.02 in   Unknown
8:54 AM 17.1 °F 14.0 °F 88% 29.86 in - North - - 0.01 in   Unknown
9:54 AM 18.0 °F 15.1 °F 88% 29.86 in - North - - N/A   Unknown
10:54 AM 19.0 °F 15.1 °F 85% 29.84 in - North - - 0.01 in   Unknown
11:54 AM 21.0 °F 17.1 °F 85% 29.80 in - North - - N/A   Unknown
12:54 PM 21.9 °F 18.0 °F 85% 29.77 in - North - - N/A   Unknown
1:54 PM 23.0 °F 19.0 °F 85% 29.75 in - North - - N/A   Unknown
2:54 PM 24.1 °F 19.9 °F 84% 29.73 in - North - - N/A   Unknown
3:54 PM 25.0 °F 21.0 °F 85% 29.74 in - North - - N/A   Unknown
4:54 PM 26.1 °F 21.0 °F 81% 29.75 in - North - - N/A   Unknown
5:54 PM 26.1 °F 21.9 °F 84% 29.76 in - North - - N/A   Unknown
6:54 PM 26.1 °F 21.9 °F 84% 29.76 in - North - - N/A   Unknown
7:54 PM 26.1 °F 21.9 °F 84% 29.75 in - North - - N/A   Unknown
8:54 PM 25.0 °F 21.9 °F 88% 29.75 in - North - - N/A   Unknown
9:54 PM 21.9 °F 19.9 °F 92% 29.75 in - North - - N/A   Unknown
10:54 PM 19.9 °F 18.0 °F 92% 29.75 in - North - - N/A   Unknown
11:54 PM 19.0 °F 17.1 °F 92% 29.75 in - North - - N/A   Unknown